Miscellaneous Local Product
Issued by NWS Hastings, NE

Home | Current Version | Previous Version | Text Only | Print | Product List | Glossary Off
Versions: 1 2 3 4 5 6 7 8 9 10 11 12 13 14 15 16 17 18 19 20 21 22 23 24 25 26 27 28 29 30 31 32 33 34 35 36 37 38 39 40 41 42 43 44 45 46 47 48 49 50

000
AXUS43 KGID 271702
MISGRI

GID CWA HOURLY WEATHER ROUNDUP
NATIONAL WEATHER SERVICE HASTINGS NE
1200 PM CDT FRI MAY 27 2016

NOTE: "FAIR" INDICATES FEW OR NO CLOUDS BELOW 12,000 FEET WITH NO
SIGNIFICANT WEATHER AND/OR OBSTRUCTIONS TO VISIBILITY.

...SOUTH CENTRAL NEBRASKA...

CITY           SKY/WX    TMP DP  RH WIND       PRES   REMARKS
GRAND ISLAND   CLOUDY    61  58  90 SE6       29.80R
HASTINGS       CLOUDY    62  58  86 E8        29.79R
KEARNEY        CLOUDY    61  55  82 E12       29.79F
ORD            CLOUDY    69  54  58 E3        29.77R
YORK           LGT RAIN  63  59  88 NE3       29.80R
AURORA         LGT RAIN  62  61  96 E5        29.79F
LEXINGTON      CLOUDY    60  56  85 E9        29.78S
HOLDREGE       CLOUDY    59  56  91 E9        29.77F
HEBRON         CLOUDY    65  58  78 E3        29.78S

...NEBRASKA PANHANDLE...

CITY           SKY/WX    TMP DP  RH WIND       PRES   REMARKS
CHADRON        CLOUDY    61  44  53 E7        29.88R
ALLIANCE       RAIN      51  49  92 N15       29.88R FOG
SCOTTSBLUFF    LGT RAIN  57  46  66 E13       29.89R
SIDNEY         MOSUNNY   53  48  83 N12       29.86R

...WESTERN AND NORTH CENTRAL NEBRASKA...

CITY           SKY/WX    TMP DP  RH WIND       PRES   REMARKS
VALENTINE      CLOUDY    58  52  80 N7        29.85S
AINSWORTH      CLOUDY    60  55  82 NW13      29.82F
ONEILL         CLOUDY    67  56  68 NW6       29.78S
BROKEN BOW     CLOUDY    66  54  65 E9        29.78R
IMPERIAL       CLOUDY    60  52  74 NE14      29.79R
NORTH PLATTE   CLOUDY    61  54  77 NE10      29.79S
MCCOOK         CLOUDY    61  54  77 E13       29.77R

...EASTERN NEBRASKA...

CITY           SKY/WX    TMP DP  RH WIND       PRES   REMARKS
NORFOLK        SUNNY     71  57  61 S10       29.75S
SO SIOUX CITY  PTSUNNY   71  59  65 MISG      29.75F
TEKAMAH        SUNNY     73  56  54 CALM      29.74S
COLUMBUS       CLOUDY    68  54  60 S7        29.79S
ALBION         CLOUDY    69  56  63 S7        29.78R
OMAHA EPPLEY   PTSUNNY   72  61  68 S9        29.76R
OFFUTT AFB     PTSUNNY   70  63  78 SE10      29.77R
MILLARD        MOSUNNY   72  60  64 SE7       29.75R
LINCOLN        CLOUDY    68  59  73 SW6       29.79R
NEBRASKA CITY  CLOUDY    68  62  82 S7        29.78R
BEATRICE       CLOUDY    67  60  78 SE3       29.78R
FALLS CITY     MOSUNNY   72  64  76 W8        29.73F

...NORTHERN KANSAS...

CITY           SKY/WX    TMP DP  RH WIND       PRES   REMARKS
GOODLAND       CLOUDY    60  52  74 NE10      29.74F
HILL CITY      LGT RAIN  60  58  92 NE9       29.74S FOG
NORTON         CLOUDY    57  55  94 NE13      29.74F FOG
PHILLIPSBURG   CLOUDY    61  61 100 NE10G16   29.74F
SMITH CENTER   CLOUDY    61  57  88 E10       29.76F
BELOIT         CLOUDY    64  57  77 E9        29.73F
HAYS           CLOUDY    36 N/A N/A E10       29.71S WCI  28
RUSSELL        CLOUDY    64  61  90 SE13      29.71S
CONCORDIA      CLOUDY    63  59  87 E7        29.74F
SALINA         CLOUDY    74  63  68 SE14      29.72F
TOPEKA         CLOUDY    70  60  70 S7        29.73F



USA.gov is the U.S. government's official web portal to all federal, state and local government web resources and services.